#timestamp,LO_Frequency,Hit,StdDev 
1597032015.4,286046999.9,N
1597032035.2,286046999.7,N
1597032055.0,286047000.4,N
1597032056.0,286047000.4,N
1597032075.8,286047002.5,N
1597032095.6,286047001.9,N
1597032115.5,286047002.7,N
1597032135.3,286047002.7,N
1597032155.1,286047002.6,N
1597032175.9,286047002.8,N
1597032195.7,286047002.5,N
1597032215.6,286046999.7,N
1597032235.4,286047000.4,N
1597032255.2,286047000.8,N
1597032275.1,286047000.7,N
1597032276.0,286047000.7,N
1597032295.8,286047000.6,N
1597032315.7,286047000.2,N
1597032335.5,286047000.2,N
1597032355.3,286047002.5,N
1597032375.2,286047002.2,N
1597032395.0,286047002.0,N
1597032395.9,286047002.0,N
1597032415.8,286047002.1,N
1597032435.6,286047002.8,N
1597032455.4,286047002.0,N
1597032475.3,286047001.7,N
1597032495.1,286047004.0,Y
1597032515.8,286047000.0,P
1597032535.7,286047000.4,N
1597032555.5,286046999.7,N
1597032575.4,286047000.3,N
1597032595.2,286047000.3,N
1597032615.0,286047001.0,N
1597032615.9,286047001.0,N
1597032635.8,286047000.6,N
1597032655.6,286046999.9,N
1597032675.5,286046999.8,N
1597032695.3,286047000.1,N
1597032715.1,286047000.5,N
1597032735.9,286047000.6,N
1597032755.7,286047000.2,N
1597032775.5,286047000.0,N
1597032795.4,286047000.5,N
1597032815.2,286047000.3,N
1597032835.1,286047002.8,Y
1597032836.0,286047002.8,P
1597032855.8,286047001.6,N
1597032875.6,286047000.0,N
1597032895.5,286047000.4,N
1597032915.3,286047000.5,N
1597032935.1,286047000.4,N
1597032955.9,286047000.7,N
1597032975.7,286047000.9,N
1597032995.6,286047000.5,N
1597033015.4,286047000.6,N
1597033035.2,286046999.8,N
1597033055.1,286047002.4,Y
1597033056.0,286047002.4,P
1597033075.8,286046999.8,N
1597033095.7,286046999.8,N
1597033115.5,286047002.0,N
1597033135.3,286047002.5,N
1597033155.2,286047002.2,N
1597033175.9,286047001.8,N
1597033195.7,286046999.9,N
1597033215.6,286047000.2,N
1597033235.4,286047000.3,N
1597033255.2,286047000.9,N
1597033275.1,286047002.8,N
1597033276.0,286047002.8,N
1597033295.8,286047002.4,N
1597033315.7,286047002.5,N
1597033335.5,286047001.9,N
1597033355.3,286047001.9,N
1597033375.2,286047002.5,N
1597033395.0,286047002.6,N
1597033395.9,286047002.6,N
1597033415.8,286047002.1,N
1597033435.6,286047002.2,N
1597033455.4,286047001.9,N
1597033475.3,286047004.4,Y
1597033495.1,286046999.9,P
1597033515.8,286047000.7,N
1597033535.7,286047000.4,N
1597033555.5,286047000.5,N
1597033575.4,286046998.2,Y
1597033595.2,286046997.0,P
1597033615.0,286046999.5,N
1597033615.9,286046999.5,N
1597033635.8,286046999.1,N
1597033655.6,286046998.7,N
1597033675.5,286046999.0,N
1597033695.3,286046999.5,N
1597033715.1,286046998.7,N
1597033735.9,286046998.5,N
1597033755.7,286046999.4,N
1597033775.5,286047000.7,N
1597033795.4,286046998.1,N
1597033815.2,286046998.2,N
1597033835.1,286047000.6,N
1597033836.0,286047000.6,N
1597033855.8,286047000.9,N
1597033875.6,286046998.6,N
1597033895.5,286047000.6,N
1597033915.3,286047000.6,N
1597033935.2,286047000.3,N
1597033955.9,286047001.2,N
1597033975.7,286047000.4,N
1597033995.6,286047001.1,N
1597034015.4,286046998.5,N
1597034035.2,286046999.2,N
1597034055.1,286046999.6,N
1597034056.0,286046999.6,N
1597034075.8,286046996.5,Y
1597034095.7,286046999.5,P
1597034115.5,286046997.2,P
1597034135.3,286046997.3,N
1597034155.2,286046999.4,N
1597034175.0,286046999.1,N
1597034175.9,286046999.1,N
1597034195.8,286046999.1,N
1597034215.6,286046997.7,N
1597034235.4,286046997.6,N
1597034255.3,286046995.8,Y
1597034275.1,286046997.2,P
1597034295.9,286046997.1,P
1597034315.7,286046999.4,N
1597034335.5,286046998.5,N
1597034355.4,286046997.3,Y
1597034375.2,286046999.5,P
1597034395.0,286046996.5,P
1597034396.0,286046996.5,N
1597034415.8,286046999.4,N
1597034435.6,286046996.8,N
1597034455.5,286046999.5,N
1597034475.3,286046999.2,N
1597034495.2,286046997.0,N
1597034515.0,286046996.7,N
1597034515.9,286046996.7,N
1597034535.7,286046996.6,N
1597034555.6,286046997.0,N
1597034575.4,286046997.1,N
1597034595.3,286046996.6,N
1597034615.1,286046996.5,N
1597034635.9,286046999.6,N
1597034655.7,286046996.8,N
1597034675.6,286046998.0,N
1597034695.4,286046998.0,N
1597034715.2,286046997.8,N
1597034735.1,286046995.1,Y
1597034736.0,286046995.1,P
1597034755.8,286046999.1,N
1597034775.7,286046998.4,N
1597034795.5,286046998.5,N
1597034815.3,286046999.3,N
1597034835.2,286046996.8,N
1597034855.0,286046997.0,N
1597034855.9,286046997.0,N
1597034875.8,286046999.2,N
1597034895.6,286046996.6,N
1597034915.4,286046997.1,N
1597034935.3,286046999.2,N
1597034955.1,286046997.0,N
1597034975.9,286046999.6,N
1597034995.7,286046996.8,N
1597035015.5,286046997.8,N
1597035035.4,286046997.5,N
1597035055.2,286046997.4,N
1597035075.1,286046997.0,N
1597035076.0,286046997.0,N
1597035095.8,286046999.5,N
1597035115.6,286046997.1,N
1597035135.5,286046997.8,N
1597035155.3,286046997.9,N
1597035175.1,286046997.3,N
1597035195.9,286046995.0,Y
1597035215.7,286046998.6,P
1597035235.6,286046998.4,P
1597035255.4,286046998.6,P
1597035275.2,286046998.5,Y
1597035295.1,286047000.3,P
1597035296.0,286047000.3,N
1597035315.8,286047000.3,N
1597035335.7,286047002.2,N
1597035355.5,286047002.6,N
1597035375.3,286047000.4,N
1597035395.2,286047000.4,N
1597035415.0,286047000.1,N
1597035415.9,286047000.1,N
1597035435.7,286047002.7,N
1597035455.6,286047002.2,N
1597035475.4,286047002.5,N
1597035495.3,286047000.6,N
1597035515.1,286047000.1,N
1597035535.8,286047002.7,N
1597035555.7,286047002.3,N
1597035575.5,286047002.1,N
1597035595.4,286047001.7,N
